Location: Chefe Valiua
(16.5342°S, 37.2214°E)
Time: 14:43:02
(UTC+00:00)

Envisat - Pass Details

Date: 20 June 2021
Orbit: 764 x 766 km, 98.1° (Epoch: 25 July)

Event Time Altitude Azimuth Distance (km) Brightness Sun altitude
Rises 01:04:51 0° 59° (ENE) 3,219 7.1 -39.9°
Reaches altitude 10° 01:09:21 10° 97° (E) 2,303 6.1 -38.9°
Maximum altitude 01:10:21 11° 109° (ESE) 2,266 5.9 -38.7°
Drops below altitude 10° 01:11:22 10° 120° (ESE) 2,307 5.9 -38.5°
Enters shadow 01:12:43 - 135° (SE) 2,480 5.9 -38.1°
